FW0211 Weather Reports


Display with metric or nautical units.
time (UTC)temp
F
wind
direction
speed
MPH
gust
MPH
rain 1hr
in
rain 24hr
in
rain mn
in
humidity
%
barometer
mb
20260510031532 76 96 13.0 21.0 0.00 0.01 0.01 93 1012.9
20260510030020 76 106 12.0 18.0 0.00 0.01 0.01 93 1012.8
20260510024521 76 88 12.0 17.0 0.00 0.01 0.01 93 1012.8
20260510023013 76 115 16.0 23.0 0.00 0.01 0.01 92 1012.2
20260510021511 76 101 15.0 21.0 0.00 0.01 0.01 92 1012.3
20260510020010 77 80 12.0 17.0 0.00 0.01 0.01 92 1011.8
20260510014509 76 93 11.0 15.0 0.00 0.01 0.01 92 1011.6
20260510013009 76 153 11.0 16.0 0.00 0.01 0.01 92 1010.9
20260510011509 77 120 9.0 14.0 0.00 0.01 0.01 92 1010.8
20260510010008 77 126 10.0 16.0 0.00 0.01 0.01 91 1010.7
20260510004507 77 112 13.0 18.0 0.00 0.01 0.01 91 1010.5
20260510003021 77 135 13.0 21.0 0.00 0.01 0.01 91 1009.9
20260510001506 77 118 12.0 21.0 0.00 0.01 0.01 90 1010.0
20260510000005 77 126 15.0 20.0 0.00 0.01 0.01 90 1010.0
20260509234513 78 113 14.0 21.0 0.00 0.01 0.01 89 1010.1
20260509233004 79 149 13.0 20.0 0.00 0.01 0.01 88 1010.3
20260509231504 81 103 14.0 20.0 0.00 0.01 0.01 85 1010.1
20260509230002 82 138 8.0 14.0 0.00 0.01 0.01 83 1009.9
20260509224501 83 128 6.0 10.0 0.00 0.01 0.01 81 1009.6
20260509223001 84 124 5.0 9.0 0.00 0.01 0.01 81 1009.3
20260509221601 84 140 6.0 8.0 0.00 0.01 0.01 80 1009.1
20260509221501 84 132 5.0 8.0 0.00 0.01 0.01 80 1009.2
20260509220059 85 150 5.0 9.0 0.00 0.01 0.01 79 1009.1
20260509214558 85 173 2.0 5.0 0.00 0.01 0.01 80 1009.1
20260509213101 85 145 2.0 7.0 0.00 0.01 0.01 80 1009.1
20260509211603 84 145 4.0 8.0 0.00 0.01 0.01 80 1009.2
20260509210101 85 158 2.0 5.0 0.00 0.01 0.01 79 1009.1
20260509204555 84 148 2.0 5.0 0.00 0.01 0.01 80 1009.2
20260509203053 84 360 4.0 8.0 0.00 0.01 0.01 80 1009.3
20260509201551 84 262 4.0 8.0 0.00 0.01 0.01 76 1009.4
20260509200053 82 161 0.0 3.0 0.00 0.01 0.01 85 1009.6
20260509194547 82 139 1.0 4.0 0.00 0.01 0.01 84 1009.8
20260509193045 82 121 1.0 8.0 0.00 0.01 0.01 83 1009.9
20260509191543 81 31 4.0 7.0 0.00 0.01 0.01 86 1009.9
20260509190042 80 37 4.0 8.0 0.00 0.01 0.01 91 1009.8
20260509184538 79 55 4.0 7.0 0.00 0.01 0.01 91 1010.5
20260509183050 79 109 3.0 6.0 0.00 0.01 0.01 91 1010.8
20260509181545 79 81 5.0 9.0 0.00 0.01 0.01 91 1011.0
20260509180037 79 118 3.0 7.0 0.00 0.01 0.01 91 1011.1
20260509174537 79 117 3.0 7.0 0.00 0.01 0.01 91 1011.2
20260509173036 79 117 2.0 7.0 0.00 0.01 0.01 91 1011.2
20260509171535 79 134 3.0 8.0 0.00 0.01 0.01 91 1011.3
20260509170035 79 150 6.0 11.0 0.00 0.01 0.01 92 1011.4
20260509164533 79 155 3.0 5.0 0.00 0.01 0.01 94 1011.4
20260509163033 78 9 2.0 10.0 0.00 0.01 0.01 95 1011.4
20260509161531 77 304 2.0 4.0 0.00 0.01 0.01 95 1011.3
20260509160028 77 94 0.0 3.0 0.00 0.01 0.01 95 1011.4
20260509154527 76 128 9.0 14.0 0.00 0.02 0.01 95 1010.6
20260509153027 76 142 1.0 3.0 0.00 0.02 0.01 95 1011.4
20260509151526 76 235 2.0 4.0 0.00 0.02 0.01 95 1011.7
20260509150026 76 192 5.0 7.0 0.00 0.02 0.01 95 1011.7
20260509144534 76 251 2.0 3.0 0.00 0.02 0.01 95 1011.8
20260509143025 77 130 1.0 4.0 0.00 0.02 0.01 95 1011.1
20260509141525 76 55 1.0 4.0 0.00 0.02 0.01 95 1011.5
20260509140125 76 281 2.0 4.0 0.00 0.02 0.01 95 1011.6
20260509134523 77 295 1.0 3.0 0.00 0.02 0.01 95 1011.2
20260509133022 76 141 0.0 1.0 0.00 0.02 0.01 95 1011.0
20260509131519 76 136 3.0 5.0 0.00 0.02 0.01 95 1010.9
20260509130018 75 136 3.0 8.0 0.01 0.02 0.01 95 1010.8
20260509124517 75 150 2.0 4.0 0.01 0.02 0.01 95 1011.0
20260509123017 75 59 0.0 2.0 0.01 0.02 0.01 95 1011.0
20260509121523 74 121 1.0 2.0 0.01 0.02 0.01 95 1010.9
20260509120017 74 10 2.0 3.0 0.00 0.01 0.00 95 1011.1
20260509114515 74 18 4.0 7.0 0.00 0.01 0.00 95 1011.1
20260509113016 74 313 2.0 3.0 0.00 0.01 0.00 95 1011.4
20260509111514 74 243 1.0 3.0 0.00 0.01 0.00 95 1010.7
20260509110013 75 243 1.0 2.0 0.00 0.01 0.00 95 1010.4
20260509104513 75 243 2.0 3.0 0.00 0.01 0.00 95 1010.6
20260509103009 75 192 3.0 5.0 0.00 0.01 0.00 95 1010.5
20260509101512 75 142 2.0 3.0 0.00 0.01 0.00 95 1010.2
20260509100008 75 360 1.0 4.0 0.00 0.01 0.00 95 1010.3
20260509094507 75 128 3.0 5.0 0.00 0.01 0.00 95 1010.0
20260509093008 75 87 3.0 6.0 0.00 0.01 0.00 95 1010.0
20260509091506 75 111 4.0 7.0 0.00 0.01 0.00 95 1010.0
20260509090005 76 360 3.0 5.0 0.00 0.01 0.00 95 1010.0
20260509084513 76 138 2.0 4.0 0.00 0.01 0.00 95 1010.3
20260509083004 76 133 3.0 4.0 0.00 0.01 0.00 95 1010.4
20260509081503 76 120 1.0 3.0 0.00 0.01 0.00 95 1010.6
20260509080008 76 123 2.0 5.0 0.00 0.01 0.00 95 1010.5
20260509074502 76 360 2.0 7.0 0.00 0.01 0.00 95 1010.5
20260509073001 76 155 4.0 7.0 0.00 0.01 0.00 94 1010.4
20260509071600 76 140 6.0 10.0 0.00 0.01 0.00 94 1010.3
20260509070059 76 155 8.0 11.0 0.00 0.01 0.00 94 1010.5
20260509064614 76 360 8.0 12.0 0.00 0.01 0.00 94 1010.6
20260509063057 76 115 7.0 11.0 0.00 0.01 0.00 94 1010.6
20260509061554 76 131 7.0 12.0 0.00 0.01 0.00 94 1010.5
20260509060052 76 119 8.0 13.0 0.00 0.01 0.00 94 1010.7
20260509054553 76 162 9.0 13.0 0.00 0.01 0.00 94 1010.9
20260509053052 76 160 10.0 14.0 0.00 0.01 0.00 94 1011.0
20260509051557 76 360 8.0 12.0 0.00 0.01 0.00 94 1011.3
20260509050047 76 121 6.0 10.0 0.00 0.01 0.00 94 1011.7
20260509044544 76 131 5.0 9.0 0.00 0.01 0.01 94 1011.8
20260509043042 76 107 7.0 13.0 0.00 0.01 0.01 94 1011.5
20260509041544 76 101 10.0 13.0 0.00 0.01 0.01 94 1011.2
20260509040043 76 138 10.0 15.0 0.00 0.01 0.01 94 1011.2
20260509034544 76 360 10.0 16.0 0.00 0.01 0.01 94 1010.9
20260509033041 76 128 8.0 14.0 0.00 0.01 0.01 94 1011.1